Погода в Сметанине

Россия / Смоленская область     54°47′02″N   31°38′10″E
темп.,
°C
ветер,
м/с
пор.,
м/с
влажн.,
%
обл.,
%
осадки,
мм/ч
давл.,
гПа
погр.,
м
9 мая, вс
вс900:00+3зсз51080100 0.0 1012333
03:00+2сз51383100 0.0 1014538
06:00+1сз513855 0.0 1016456
09:00+5сз710635 0.0 10181079
12:00+9сз794969 0.0 10191966
15:00+11сз684257 0.0 10202391
18:00+11сз475117 0.0 10212239
21:00+6зсз22716 0.0 102414
10 мая, пн
пн1000:00+3зсз22725 0.0 102622
03:00+3зсз11705 0.0 102710
06:00+3ю11685 0.0 102810
09:00+9ю23565 0.0 1029380
12:00+13ююз334424 0.0 10281256
15:00+14ююз22425 0.0 10271364
18:00+14ююв11450 0.0 10271210
21:00+9юв22620 0.0 102810
11 мая, вт
вт1100:00+7вюв33680 0.0 102829
03:00+5вюв22710 0.0 102921
06:00+5в36765 0.0 102992
09:00+11в47600 0.0 1028428
12:00+15всв56475 0.0 1027892
15:00+17в56495 0.0 1025988
18:00+17всв476397 0.0 1024767
21:00+12в48840 0.0 1025130
12 мая, ср
ср1200:00+11в4119319 0.0 1024206
03:00+10вюв35976 0.0 102488
06:00+9вюв359482 0.0 1024125
09:00+9юв3788100 0.2 1024404
12:00+8юв0194100 2.4 1023145
15:00+12вюв457786 3.2 1021967
18:00+12всв577817 0.1 1019622
21:00+9всв41191100 0.2 1018314
13 мая, чт
чт1300:00+9всв6129495 0.1 1017370
03:00+9в71294100 0.2 1015634
06:00+9юв7138893 1.4 1014764
09:00+10ююв8137999 1.6 10151200
12:00+13ююв8126384 0.1 10151732
15:00+15ююв71156100 0.2 10151719
18:00+13ю3672100 0.0 1015207
21:00+12вюв3388100 0.1 101555